Regional Weather Roundup
Issued by NWS

Home | Current Version | Previous Version | Text Only | Print | Product List | Glossary Off
Versions: 1 2 3 4 5 6 7 8 9 10 11 12 13 14 15 16 17 18 19 20 21 22 23 24 25 26 27 28 29 30 31 32 33 34 35 36 37 38 39 40 41 42 43 44 45 46 47 48 49 50

000
ASUS43 KMKX 252121
RWRWI

WISCONSIN REGIONAL WEATHER ROUNDUP
NATIONAL WEATHER SERVICE MILWAUKEE/SULLIVAN WI
300 PM CST SUN JAN 25 2015

NOTE: "FAIR" INDICATES FEW OR NO CLOUDS BELOW 12,000 FEET WITH NO
SIGNIFICANT WEATHER AND/OR OBSTRUCTIONS TO VISIBILITY.

WIZ001-002-006>008-014>016-023>028-252200-
NORTHWEST WISCONSIN

CITY           SKY/WX    TMP DP  RH WIND       PRES   REMARKS
SUPERIOR ARPT  CLOUDY    23  15  70 E5        30.07F WCI  17
ASHLAND        CLOUDY    20  10  65 N9        30.07F WCI   9
HAYWARD        CLOUDY    22   7  52 CALM      30.02S
SIREN          CLOUDY    25  12  56 NE5       30.03F WCI  19
CUMBERLAND     CLOUDY    21   9  58 E3        30.02R
RICE LAKE      CLOUDY    22  11  61 N6        30.05R WCI  15
CHETEK         CLOUDY    22  10  58 CALM      30.04R
LADYSMITH      CLOUDY    23  10  56 CALM      30.03S
EAU CLAIRE     CLOUDY    23  11  60 E7        30.02S WCI  15
MENOMONIE      PTSUNNY   25  12  57 NE5       30.03S WCI  19
NEW RICHMOND   SUNNY     23  10  57 NE5       30.04S WCI  17
OSCEOLA        SUNNY     26  12  54 E6        30.07S WCI  20
$$

WIZ003>005-009-010-017-018-252200-
NORTH CENTRAL WISCONSIN

CITY           SKY/WX    TMP DP  RH WIND       PRES   REMARKS
MANITOWISH WTR CLOUDY    18   4  55 CALM      29.99S
ARBOR VITAE    CLOUDY    21   7  54 CALM      29.99S
WOODRUFF       CLOUDY    21   7  54 CALM      29.99S
RHINELANDER    CLOUDY    18   5  57 E5        29.99R WCI  11
EAGLE RIVER    MOSUNNY   18   3  52 N3        29.98S
LAND O LAKES   CLOUDY    19   6  55 CALM      29.99F
PHILLIPS       CLOUDY    19   6  55 CALM      29.99S
TOMAHAWK       CLOUDY    20   6  52 CALM      30.00R
MEDFORD        CLOUDY    20   8  59 NE3       29.99R
MERRILL        MOSUNNY   22   5  49 NE3       29.99S
$$

WIZ029-030-035-036-043>047-252200-
CENTRAL WISCONSIN

CITY           SKY/WX    TMP DP  RH WIND       PRES   REMARKS
WAUSAU         MOSUNNY   21   6  52 NE6       29.99R WCI  13
MOSINEE        NOT AVBL
MARSHFIELD     CLOUDY    21   8  57 E7        30.00R WCI  12
STEVENS POINT  SUNNY     19   6  55 E7        30.02R WCI  10
WAUPACA        MOSUNNY   25   9  52 NE8       30.03R WCI  16
WAUTOMA        MOSUNNY   21  10  63 NE9       30.03R WCI  11
WISC RAPIDS    SUNNY     21   7  54 E10       30.03R WCI  10
CAMP DOUGLAS   MOSUNNY   25  10  54 N8        30.01R WCI  16
$$

WIZ011>013-019>022-031-037>040-048>050-252200-
NORTHEAST WISCONSIN

CITY           SKY/WX    TMP DP  RH WIND       PRES   REMARKS
ANTIGO         PTSUNNY   19   6  58 N5        29.98R WCI  12
SHAWANO        SUNNY     23   9  54 E6        30.05R WCI  16
OCONTO         SUNNY     20   8  58 CALM      30.05S
STURGEON BAY   CLOUDY    18   9  68 N14       30.05S WCI   4
GREEN BAY      SUNNY     21  11  65 NE18      30.03R WCI   6
MANITOWOC      MOSUNNY   23  13  65 NE15G21   30.01R WCI  10
APPLETON       PTSUNNY   21   9  58 NE14G22   30.01R WCI   8
CLINTONVILLE   SUNNY     23   9  54 NE7       30.04R WCI  15
OSHKOSH        CLOUDY    20  11  68 N17       30.00R WCI   5
$$

WIZ032>034-041-042-053>061-252200-
SOUTHWEST WISCONSIN

CITY           SKY/WX    TMP DP  RH WIND       PRES   REMARKS
LA CROSSE      MOSUNNY   28  16  60 E7        30.01R WCI  21
SPARTA         MOSUNNY   27  13  55 E7        30.02R WCI  20
VIROQUA        SUNNY     26  15  63 NE8       29.97R WCI  17
BOSCOBEL       SUNNY     28  14  55 E7G17     29.99R WCI  21
PRAIRIE DU CHI SUNNY     29  16  57 N6        29.98R WCI  23
PLATTEVILLE    CLOUDY    24  18  76 N15       29.94R WCI  11
$$

WIZ056-057-062-063-064-067-068-252200-
SOUTH CENTRAL WISCONSIN

CITY           SKY/WX    TMP DP  RH WIND       PRES   REMARKS
REEDSBURG      PTSUNNY   23  12  62 NE8       29.99R WCI  14
BARABOO/DELLS  PTSUNNY   23  12  63 NE9G16    29.98R WCI  13
LONE ROCK      CLOUDY    24  14  65 NE10      29.99R WCI  14
MINERAL POINT  CLOUDY    27  18  69 NE10G17   29.93R WCI  17
MADISON        PTSUNNY   25  14  63 NE14      29.95R WCI  13
MIDDLETON      MOSUNNY   27  16  63 N17G24    29.95R WCI  14
WATERTOWN      SUNNY     26   9  50 NE14G26   29.94R WCI  14
MONROE         MOSUNNY   28  19  69 N16       29.90R WCI  17
JANESVILLE     PTSUNNY   28  12  50 NE17G23   29.91R WCI  16
$$

WIZ051-052-058>065-066-070>072-252200-
SOUTHEAST WISCONSIN

CITY           SKY/WX    TMP DP  RH WIND       PRES   REMARKS
MILWAUKEE      PTSUNNY   25  14  63 NE20G26   29.94R WCI  11
WAUKESHA       MOSUNNY   23  10  58 NE16G25   29.94R WCI  10
MILWAUKEE/TIMM MOSUNNY   25  12  58 N20       29.95R WCI  11
RACINE         MOSUNNY   25  14  63 NE20G28   29.94R WCI  11
BURLINGTON     CLOUDY    23  13  66 NE14G25   29.92R WCI  11
KENOSHA        CLOUDY    26  16  65 NE22      29.92R WCI  12
FOND DU LAC    SUNNY     22  13  68 N16       29.99R WCI   8
SHEBOYGAN      MOSUNNY   23  11  60 NE22      29.98R WCI   8
WEST BEND      SUNNY     23   9  54 NE16G24   29.95S WCI  10
JUNEAU         SUNNY     24  14  67 N15       29.96R WCI  11
$$

LSZ147-162-252200-
LAKE SUPERIOR

STATION/POSITION TIME  TEMP    WIND        PRES    WAVE
                       AIR SEA DIR/SP/G            HT/PER
                 (UTC) (F)     (DEG/KT/KT) (MB)    (FT/S)
DEVILS ISLAND    2100   20      70/ 11/ 12 1019.6F
PORT WING        2040   22      90/  4/  7 1019.0R
SAXON HARBOR     2000   21      30/  7/ 11 1018.3F
$$

LMZ867-665-643>646-252200-
LAKE MICHIGAN

STATION/POSITION TIME  TEMP    WIND        PRES    WAVE
                       AIR SEA DIR/SP/G            HT/PER
                 (UTC) (F)     (DEG/KT/KT) (MB)    (FT/S)
NORTHPORT PIER   2109   18     330/  6/ 12 1018.3S
SISTER BAY       2013   21      30/ 11/ 15   N/A
KEWAUNEE LAKESHO 2100   21      40/ 18/ 22 1015.9R
SHEBOYGAN LAKESH 2100   23      30/ 23/ 26 1016.5R
PORT WASHINGTON  2040   25      40/ 22/ 26 1015.6R
MILWAUKEE LAKESH 2100   25      30/ 22/ 25   N/A
KENOSHA   LAKESH 2100   25      30/ 22/ 27 1013.2R
$$

TC  - TEMPERATURE IN CELSIUS
VSB - VISIBILITY IN STATUTE MILES
WCI - WIND CHILL INDEX
HX  - HEAT INDEX



USA.gov is the U.S. government's official web portal to all federal, state and local government web resources and services.